This is the latest recevied weather packets stored in our database for station/object KA1CNF. If no packets are shown the sender has not sent any weather packets the latest 10 day(s).
| Time | Temp. | Humidity | Pressure | Rain* | Wind** | Luminosity | Snow |
|---|---|---|---|---|---|---|---|
| 1777735816 | 8.33° C | 67% | 1012.9 hPa | 0 mm | - | 250 W/m² | - |
| 1777732215 | 8.89° C | 61% | 1013.1 hPa | 0 mm | - | 292 W/m² | - |
| 1777714217 | 2.78° C | 89% | 1012.6 hPa | 0 mm | - | 0 W/m² | - |
| 1777701616 | 5° C | 96% | 1011.7 hPa | 0 mm | - | 0 W/m² | - |
| 1777696216 | 5° C | 95% | 1011.8 hPa | 0 mm | - | 0 W/m² | - |
| 1777685415 | 5.56° C | 93% | 1011.7 hPa | 0 mm | - | 0 W/m² | - |
| 1777671017 | 7.22° C | 82% | 1010.7 hPa | 0 mm | - | 96 W/m² | - |
| 1777644016 | 10.56° C | 62% | 1011.6 hPa | 0 mm | - | 272 W/m² | - |
| 1777640416 | 8.89° C | 70% | 1012 hPa | 0 mm | - | 278 W/m² | - |
| 1777638656 | 7.22° C | 83% | 1012.1 hPa | 0 mm | - | 227 W/m² | - |
| 1777620617 | 3.33° C | 94% | 1011.3 hPa | 0 mm | - | 0 W/m² | - |
| 1777617017 | 3.89° C | 92% | 1011.3 hPa | 0 mm | - | 0 W/m² | - |
| 1777611616 | 4.44° C | 91% | 1011.5 hPa | 0 mm | - | 0 W/m² | - |
| 1777606216 | 5° C | 89% | 1011.6 hPa | 0 mm | - | 0 W/m² | - |
| 1777584615 | 9.44° C | 66% | 1009.6 hPa | 0 mm | - | 112 W/m² | - |
| 1777582855 | 10° C | 65% | 1009.4 hPa | 0 mm | - | 161 W/m² | - |
| 1777564817 | 11.67° C | 78% | 1008.7 hPa | 0 mm | - | 317 W/m² | - |
| 1777536035 | 6.67° C | 98% | 1006.3 hPa | 0.25 mm | - | 0 W/m² | - |
| 1777512616 | 7.78° C | 98% | 1005.3 hPa | 0.25 mm | - | 0 W/m² | - |
| 1777501816 | 8.33° C | 96% | 1004.9 hPa | 3.05 mm | - | 8 W/m² | - |
| 1777500016 | 10° C | 97% | 1004.7 hPa | 1.02 mm | - | 13 W/m² | - |
| 1777489217 | 11.11° C | 94% | 1006.5 hPa | 0.76 mm | - | 42 W/m² | - |
| 1777483817 | 12.78° C | 85% | 1007.5 hPa | 0 mm | - | 39 W/m² | - |
| 1777469416 | 13.33° C | 87% | 1009.8 hPa | 0 mm | - | 187 W/m² | - |
| 1777447815 | 11.11° C | 92% | 1010.8 hPa | 0 mm | - | 0 W/m² | - |
* Rain latest hour (hover to see other rain measurements)
** Current wind speed in m/s (hover to see current wind gust speed)